TimeEDT,TemperatureF,Dew PointF,Humidity,Sea Level PressureIn,VisibilityMPH,Wind Direction,Wind SpeedMPH,Gust SpeedMPH,PrecipitationIn,Events,Conditions,WindDirDegrees,DateUTC
12:12 AM,50.0,46.4,87,30.27,10.0,NE,5.8,-,N/A,,Overcast,50,2012-10-09 04:12:00
12:51 AM,51.1,46.0,83,30.29,10.0,NE,4.6,-,N/A,,Overcast,50,2012-10-09 04:51:00
1:18 AM,51.8,46.4,82,30.29,10.0,NE,5.8,-,N/A,,Mostly Cloudy,50,2012-10-09 05:18:00
1:51 AM,51.1,46.0,83,30.29,10.0,ENE,6.9,-,N/A,,Overcast,60,2012-10-09 05:51:00
2:51 AM,51.1,46.0,83,30.26,10.0,ENE,9.2,-,N/A,,Mostly Cloudy,60,2012-10-09 06:51:00
3:15 AM,51.8,44.6,76,30.24,10.0,ENE,9.2,-,N/A,,Overcast,60,2012-10-09 07:15:00
3:51 AM,51.8,46.4,82,30.25,10.0,NE,6.9,-,N/A,,Overcast,50,2012-10-09 07:51:00
4:51 AM,52.0,46.0,80,30.25,10.0,ENE,8.1,-,N/A,,Overcast,60,2012-10-09 08:51:00
5:51 AM,52.0,46.9,83,30.24,10.0,NE,8.1,-,N/A,,Overcast,40,2012-10-09 09:51:00
6:51 AM,52.0,48.0,86,30.25,10.0,NE,9.2,-,N/A,,Overcast,50,2012-10-09 10:51:00
7:51 AM,53.6,48.2,82,30.25,10.0,NE,9.2,-,N/A,,Overcast,50,2012-10-09 11:51:00
8:30 AM,53.6,48.2,82,30.26,10.0,NE,8.1,-,N/A,,Overcast,40,2012-10-09 12:30:00
8:51 AM,53.1,48.9,86,30.27,10.0,NE,9.2,-,N/A,,Overcast,40,2012-10-09 12:51:00
9:17 AM,53.6,48.2,82,30.25,10.0,NE,8.1,-,N/A,,Overcast,50,2012-10-09 13:17:00
9:51 AM,55.4,48.2,77,30.24,10.0,NE,10.4,-,N/A,,Overcast,40,2012-10-09 13:51:00
10:32 AM,55.4,48.2,77,30.25,10.0,NE,9.2,-,N/A,,Overcast,50,2012-10-09 14:32:00
10:51 AM,55.0,48.9,80,30.25,10.0,ENE,5.8,16.1,N/A,,Overcast,70,2012-10-09 14:51:00
11:51 AM,57.0,48.9,74,30.22,10.0,NE,11.5,-,N/A,,Overcast,40,2012-10-09 15:51:00
12:51 PM,57.0,48.0,72,30.21,10.0,NE,12.7,-,N/A,,Overcast,40,2012-10-09 16:51:00
1:51 PM,57.0,48.9,74,30.19,10.0,NE,10.4,-,N/A,,Overcast,50,2012-10-09 17:51:00
2:51 PM,59.0,48.9,69,30.17,10.0,NNE,13.8,-,N/A,,Overcast,30,2012-10-09 18:51:00
3:03 PM,57.2,48.2,72,30.18,10.0,NE,12.7,-,N/A,,Overcast,50,2012-10-09 19:03:00
3:51 PM,57.0,48.9,74,30.17,10.0,NE,12.7,-,0.00,,Light Drizzle,40,2012-10-09 19:51:00
4:51 PM,55.9,48.9,77,30.17,10.0,NE,12.7,-,0.00,,Overcast,40,2012-10-09 20:51:00
5:51 PM,55.0,48.0,77,30.17,10.0,NE,10.4,-,N/A,,Overcast,40,2012-10-09 21:51:00
6:51 PM,54.0,48.0,80,30.16,10.0,NE,10.4,20.7,0.00,,Overcast,40,2012-10-09 22:51:00
7:23 PM,53.6,46.4,77,30.16,10.0,NE,8.1,-,N/A,,Overcast,40,2012-10-09 23:23:00
7:51 PM,54.0,46.0,75,30.16,10.0,NE,10.4,-,N/A,,Overcast,40,2012-10-09 23:51:00
8:51 PM,54.0,46.0,75,30.16,10.0,NNE,10.4,-,N/A,,Overcast,20,2012-10-10 00:51:00
9:51 PM,53.1,45.0,74,30.15,10.0,NNE,8.1,-,N/A,,Mostly Cloudy,30,2012-10-10 01:51:00
10:21 PM,53.6,44.6,72,30.15,10.0,NNE,9.2,-,N/A,,Mostly Cloudy,30,2012-10-10 02:21:00
10:51 PM,53.1,45.0,74,30.14,10.0,NNE,9.2,-,N/A,,Mostly Cloudy,30,2012-10-10 02:51:00
11:40 PM,53.6,46.4,77,30.13,10.0,North,6.9,-,N/A,,Overcast,10,2012-10-10 03:40:00
11:51 PM,53.1,46.0,77,30.14,10.0,NNE,6.9,-,N/A,,Overcast,30,2012-10-10 03:51:00